Lapse_Rate
6.5 6.5 6.6 6.6 6.7 6.8 6.7 6.4 6.2 5.8 6.0 6.3 6.4 6.2 6.5 6.5 6.4 6.4 6.5 6.6 6.7 6.6 6.4 6.4 6.4 6.4 6.1 5.8 5.7 5.6 5.1 5.5 6.0 6.2 6.2 6.1 5.9 5.8 5.9 6.0 5.9 6.1 6.2 6.3 6.2
6.5 6.4 6.5 6.5 6.6 6.7 6.8 6.9 6.6 6.4 5.8 5.9 6.2 6.5 6.4 6.5 6.8 6.4 6.6 6.4 6.5 6.4 6.3 6.3 6.2 6.2 5.9 5.7 5.3 5.2 5.1 5.9 6.1 6.1 6.0 5.9 5.9 5.7 5.7 5.9 6.0 6.1 6.2 6.2 6.1
6.8 6.8 6.6 6.4 6.5 6.6 6.7 6.9 6.8 6.7 6.5 5.9 5.9 6.1 6.4 6.6 6.8 6.9 6.7 6.7 6.6 6.5 6.2 6.1 5.9 5.9 5.7 5.7 5.3 5.1 5.5 5.7 5.9 5.7 5.7 5.5 5.7 5.6 5.6 5.7 6.1 6.3 6.0 6.0 6.0
6.4 6.7 6.9 6.7 6.3 6.1 6.4 6.5 6.8 7.0 6.6 6.5 5.9 6.0 6.1 6.4 6.6 6.7 6.7 6.5 6.6 6.4 6.2 6.1 6.0 5.9 5.8 5.7 5.6 5.1 5.6 5.7 5.5 5.4 5.3 5.2 5.4 5.6 5.6 5.8 5.9 5.7 5.6 5.9 5.9
6.2 6.4 6.8 6.8 6.7 6.4 6.1 6.1 6.5 6.7 7.2 7.0 6.6 6.2 6.2 6.2 6.5 6.5 6.9 6.7 6.4 6.1 6.1 5.9 6.0 6.1 6.1 5.8 5.5 5.4 5.6 5.4 5.1 5.1 5.0 5.0 5.2 5.3 5.7 5.5 5.6 5.7 5.8 5.8 5.9
6.2 6.3 6.4 6.7 6.8 6.9 6.5 6.2 6.3 6.5 6.7 7.1 6.7 6.7 6.3 6.4 6.4 6.3 6.7 6.7 6.6 6.2 6.1 6.2 6.0 5.7 5.7 5.7 5.2 5.5 5.5 5.4 5.0 4.9 4.8 4.8 4.8 5.0 5.7 5.7 5.5 5.6 5.7 5.6 5.6
6.5 6.1 6.1 6.5 6.8 6.8 6.7 6.2 6.1 6.4 6.4 6.7 6.7 6.6 6.4 7.4 6.1 6.1 6.4 6.4 6.4 6.4 6.2 6.0 5.8 5.5 5.3 5.6 5.2 5.2 5.3 5.2 5.2 5.0 4.7 4.8 4.7 6.1 5.7 5.8 5.7 5.6 5.7 5.8 5.7
6.1 6.4 6.4 6.3 6.3 6.5 6.6 6.4 5.7 5.9 6.0 6.0 6.1 6.0 6.4 7.2 6.3 6.2 6.2 6.3 6.3 6.2 6.3 5.8 5.6 5.1 5.1 5.0 5.4 5.1 4.8 4.5 5.6 5.6 5.1 4.6 6.3 6.3 6.0 6.2 6.2 6.2 6.2 6.1 6.0
5.5 5.4 5.7 5.8 6.0 5.9 6.1 6.3 6.2 5.4 5.0 5.2 5.5 5.4 6.0 7.0 7.2 6.7 6.3 6.1 6.2 6.0 5.9 5.8 5.3 4.7 4.8 4.8 4.8 4.7 4.4 5.1 5.3 5.4 5.4 5.1 6.2 6.4 6.3 6.6 6.7 6.6 6.6 6.5 6.2
5.1 5.3 4.9 4.9 4.9 4.9 4.9 5.5 6.0 5.5 5.0 4.8 4.9 5.0 5.7 6.7 6.9 7.0 6.4 6.1 6.1 6.1 5.4 5.4 5.2 4.9 4.6 4.5 4.5 4.8 5.3 5.0 5.1 5.5 5.6 5.6 6.3 6.5 6.4 6.4 6.5 6.6 6.7 6.5 6.3
4.3 3.8 3.9 3.7 3.7 3.7 3.5 3.5 4.7 5.5 5.7 5.3 5.7 5.8 5.7 6.4 6.2 6.1 6.3 6.5 5.9 5.4 5.4 5.5 5.4 4.8 6.4 5.4 5.1 5.2 5.1 5.2 5.4 5.3 5.3 5.8 5.8 6.4 5.8 6.0 6.5 6.8 6.8 6.6 6.4
3.1 3.0 3.4 3.3 3.2 3.3 3.2 3.5 4.1 4.8 5.3 5.7 5.6 5.3 5.9 6.0 5.8 5.9 6.1 6.2 5.8 5.7 5.7 5.1 4.8 6.1 5.8 5.3 4.7 4.8 5.0 5.2 5.2 5.3 5.4 5.5 6.1 6.4 5.9 6.2 6.4 6.6 6.5 6.7 6.4
3.0 2.8 2.9 3.1 3.1 3.6 4.1 4.7 6.0 6.0 4.6 5.0 5.5 5.1 6.0 6.1 5.8 5.8 5.9 6.0 5.8 5.8 5.6 5.5 5.6 6.0 5.4 5.2 4.6 4.4 4.6 4.8 5.1 5.2 5.0 5.1 5.6 6.5 6.4 6.3 6.8 6.5 6.5 6.3 6.4
2.9 3.1 3.7 4.2 4.5 5.4 5.7 6.5 6.5 7.2 6.4 5.0 6.1 5.8 6.0 6.0 5.8 6.1 5.3 5.5 5.5 5.7 5.7 5.0 5.2 5.5 5.5 5.0 4.9 4.5 5.0 5.0 4.8 4.8 4.8 4.8 4.5 6.6 6.9 6.7 7.1 6.9 6.7 6.7 6.6
3.9 4.6 5.2 5.6 6.2 6.8 7.0 7.2 7.3 7.5 7.5 7.1 6.7 7.0 7.0 6.6 6.4 6.7 6.7 5.8 5.6 5.9 6.0 5.5 6.0 6.0 5.5 6.0 5.7 5.0 5.4 5.2 4.8 4.9 4.7 4.6 4.5 6.0 6.8 7.0 7.5 7.5 7.1 6.8 6.5
5.2 5.8 6.5 7.4 7.6 7.8 7.5 7.0 7.4 7.7 7.3 8.2 7.5 7.7 7.5 7.2 6.7 6.9 7.1 6.1 5.6 5.8 5.7 5.7 5.9 5.6 5.6 5.8 5.5 5.2 5.1 5.0 4.8 4.8 3.8 4.5 4.7 5.3 6.5 7.3 7.4 7.5 7.2 7.0 6.6
6.1 6.9 7.4 7.5 7.9 7.6 7.4 7.0 7.5 7.4 7.6 8.0 8.3 8.5 8.0 7.7 6.6 6.8 7.1 6.3 5.8 5.5 4.9 5.4 5.5 5.5 5.3 5.4 5.2 5.0 5.1 3.9 3.9 3.7 3.2 4.3 3.9 5.4 6.6 7.0 7.5 7.4 7.3 7.2 6.6
6.9 7.7 7.8 7.7 7.5 7.5 7.4 7.4 7.3 7.7 7.4 8.1 8.3 8.7 8.2 7.8 7.0 7.0 7.3 6.8 6.6 6.6 6.0 5.9 5.4 5.4 5.4 5.4 5.1 5.0 5.6 5.0 4.4 3.3 3.9 4.0 3.3 6.2 6.8 6.8 7.1 7.4 7.4 7.1 6.8
7.6 7.8 7.9 7.6 7.7 7.5 7.4 7.3 7.6 7.8 7.4 7.5 8.4 8.5 8.5 7.9 7.9 7.3 7.4 7.5 7.5 6.9 6.8 6.4 6.2 6.4 6.0 6.2 6.2 5.5 5.7 5.7 5.2 3.8 3.6 4.6 4.8 6.4 7.0 7.3 7.1 7.1 7.2 7.1 6.9
7.8 8.0 7.9 7.8 7.8 7.6 7.5 7.4 7.6 7.6 7.5 7.4 7.6 7.9 8.4 8.4 7.9 7.5 7.5 7.5 7.3 7.3 7.0 6.9 6.7 6.5 6.5 6.4 6.3 6.2 6.2 5.6 5.5 3.7 4.3 4.2 4.7 6.9 7.1 7.4 7.3 7.0 6.9 6.8 6.7
7.9 7.9 7.9 7.9 7.8 7.7 7.7 7.6 7.8 7.7 7.7 7.5 7.6 7.7 8.2 8.4 8.3 7.8 7.8 7.7 7.9 7.8 7.4 7.0 6.9 6.1 6.4 6.2 6.0 5.8 5.7 5.8 5.7 5.3 4.5 4.4 6.0 7.3 7.5 7.0 7.0 6.7 6.6 6.5 6.5
7.8 7.8 8.0 7.9 7.7 7.6 7.7 7.7 7.7 7.8 7.7 7.5 7.3 7.6 7.6 8.2 8.3 8.1 7.7 8.1 8.0 7.8 7.3 7.1 6.8 6.3 6.0 6.4 6.3 6.1 6.3 6.3 6.2 4.2 4.9 4.3 6.2 7.0 7.2 7.1 6.8 6.5 6.4 6.4 6.3
7.8 7.8 8.0 8.0 7.9 7.7 7.9 7.8 7.8 7.9 7.6 7.3 7.5 7.4 7.6 7.9 8.0 8.1 8.0 8.0 7.8 7.6 7.4 6.9 6.6 5.8 5.8 5.8 6.3 6.2 6.0 6.0 5.8 6.0 5.7 5.4 6.2 7.3 7.1 7.1 6.7 6.7 6.4 6.3 6.4
7.9 7.8 8.0 8.1 7.9 7.6 7.5 7.8 7.6 7.7 7.4 7.2 7.5 7.3 7.5 7.6 7.6 7.6 7.7 7.9 7.6 7.4 7.1 6.8 6.6 7.1 6.1 6.1 6.0 5.1 5.6 5.7 5.7 5.7 5.5 5.5 6.5 7.1 7.1 7.3 7.1 7.0 6.6 6.4 6.4
7.8 7.7 7.8 7.8 7.8 7.7 7.5 7.5 7.7 7.5 7.4 7.4 7.3 7.3 7.4 7.3 7.3 7.2 7.4 7.5 7.2 7.0 6.9 6.6 6.4 6.7 7.1 7.2 7.2 7.0 6.8 6.3 6.0 5.9 5.8 6.0 6.4 7.1 7.0 7.0 7.0 7.0 6.9 6.5 6.4
7.7 7.7 7.6 7.7 7.8 7.7 7.7 7.7 7.7 7.6 7.2 7.2 7.3 7.6 7.4 7.3 7.4 7.3 7.3 7.2 6.9 6.9 6.9 6.6 6.2 6.3 6.6 6.9 6.9 7.1 6.9 6.7 6.5 6.0 5.6 5.7 6.2 6.8 6.9 7.0 7.0 7.1 7.0 6.9 6.6
7.8 7.7 7.5 7.5 7.5 7.5 7.6 7.5 7.6 7.5 7.5 7.3 7.3 7.0 7.2 7.4 7.2 7.3 7.2 7.2 7.1 6.8 6.5 6.6 6.4 6.1 5.9 6.2 6.6 6.2 7.1 6.7 6.2 6.0 5.7 5.5 6.3 6.8 6.9 7.1 7.1 7.1 7.0 6.9 6.5
Wind_Speed
15 16 15 15 15 15 14 13 14 14 14 14 15 10 12 11 8 3 7 9 8 10 8 5 3 3 3 2 2 2 2 4 5 7 3 4 3 2 2 7 1 1 4 1 17
20 18 17 16 15 15 15 13 13 14 15 15 14 12 12 8 2 7 10 11 13 7 4 6 5 5 2 3 2 3 3 8 4 4 3 5 3 8 5 5 2 1 5 15 18
22 22 21 20 17 15 15 15 12 13 15 14 14 14 10 3 4 6 1 15 15 10 4 3 4 4 3 3 4 4 4 4 3 3 3 4 3 3 8 5 7 10 13 18 19
22 24 23 22 23 20 16 13 13 13 14 13 13 15 10 1 4 2 5 17 12 12 5 4 4 6 4 5 4 2 5 3 1 2 3 5 5 3 6 2 2 9 21 19 20
20 22 23 23 22 22 21 16 13 12 13 12 12 12 3 2 8 5 11 17 10 6 7 5 5 5 6 5 4 4 3 4 2 3 1 4 4 3 5 2 4 14 18 20 18
20 20 21 22 21 21 21 21 16 11 11 11 12 10 2 6 4 5 7 7 6 5 6 5 6 5 4 3 7 3 6 2 2 3 2 3 2 3 2 7 9 16 18 17 19
23 23 20 20 21 20 20 20 19 14 10 11 11 5 6 12 2 2 6 6 6 6 5 4 3 5 5 4 3 3 3 1 4 5 3 3 7 9 4 10 12 15 15 14 16
25 22 25 21 20 20 20 19 20 17 11 13 11 4 7 4 7 3 3 3 5 4 4 5 5 3 2 3 4 4 3 2 1 8 4 5 9 2 9 13 14 14 13 14 15
27 25 24 22 23 20 19 20 21 17 12 8 3 3 6 1 4 6 6 6 5 3 2 5 4 4 2 5 2 2 3 5 5 8 4 6 5 1 4 10 13 14 14 15 12
26 25 26 24 22 21 17 19 19 8 3 3 3 2 5 4 3 4 5 7 4 6 3 3 3 4 2 7 7 7 4 3 4 3 4 8 12 5 1 7 12 13 13 15 15
26 26 26 26 23 21 10 3 2 3 4 9 7 4 2 2 3 3 6 5 4 4 6 3 7 13 18 9 2 5 4 4 3 3 5 13 12 14 8 5 8 10 13 15 17
26 25 27 23 23 19 4 4 6 1 6 12 11 11 5 2 1 3 7 7 6 7 6 3 10 10 5 8 6 5 4 4 2 1 4 3 13 15 12 9 11 14 14 17 14
26 25 26 23 19 4 6 13 1 4 6 7 8 9 8 8 5 6 11 5 4 6 11 7 4 13 10 6 12 9 8 4 1 1 2 5 8 8 6 15 9 11 14 15 19
26 26 24 22 8 2 5 3 10 5 4 7 6 9 7 7 8 9 10 6 3 12 8 7 4 8 8 12 10 14 7 5 4 2 3 2 5 5 3 7 10 14 14 16 16
26 26 24 16 4 3 3 2 4 3 4 6 10 1 5 16 11 11 13 4 9 8 7 8 9 15 8 13 14 6 7 9 4 3 1 1 2 7 2 5 13 15 15 16 17
27 25 21 5 2 3 4 2 5 5 7 2 6 7 6 14 2 5 8 6 5 6 1 4 2 6 7 3 14 11 7 7 4 3 3 7 6 5 5 6 3 5 16 16 16
24 21 13 2 4 6 3 2 5 5 1 6 6 6 4 6 5 5 14 14 9 7 6 3 3 3 4 6 3 3 9 2 1 1 5 1 3 14 5 5 4 6 13 16 16
19 18 6 4 8 6 3 3 6 5 7 2 4 6 9 8 6 5 12 14 9 4 4 9 5 8 6 7 10 7 7 6 7 4 3 2 7 7 5 3 3 2 5 11 15
14 2 1 4 10 3 3 5 5 2 4 6 2 4 4 5 7 4 8 17 14 8 7 5 6 1 1 4 11 7 5 3 7 3 1 4 6 11 6 4 2 3 5 11 13
1 2 3 5 7 3 4 7 4 4 1 2 3 3 7 7 4 6 9 6 8 14 2 6 2 1 2 4 2 5 9 3 2 5 4 3 4 6 2 7 4 5 7 8 9
2 2 2 1 2 2 4 3 4 5 3 2 3 3 3 5 5 5 9 2 9 8 8 3 3 1 4 6 8 3 3 4 5 2 4 1 5 4 3 5 10 7 7 9 11
1 2 3 2 0 2 2 4 3 2 4 7 4 3 5 5 4 2 15 6 6 6 10 5 2 4 5 1 2 1 6 5 5 5 1 2 5 1 3 5 6 6 6 7 8
0 2 2 3 1 2 3 3 4 2 5 4 5 12 6 5 3 5 6 5 6 7 9 7 4 4 2 3 2 5 4 4 5 3 7 6 5 1 3 3 3 7 6 7 8
2 3 3 1 1 3 2 4 3 4 4 1 4 3 2 1 1 3 5 3 9 5 14 14 5 7 9 7 6 4 2 4 4 3 6 5 4 4 2 6 5 5 6 8 9
2 3 2 3 3 4 4 1 2 2 4 4 3 6 4 1 4 4 4 1 1 6 9 9 7 4 1 3 3 6 12 12 12 13 13 8 8 6 5 7 5 6 6 8 9
2 1 1 3 5 7 5 4 6 8 5 2 5 2 4 4 7 7 8 5 5 4 4 7 4 5 1 4 2 3 6 17 18 4 2 3 6 5 3 6 6 8 10 10 10
1 1 2 3 4 3 1 3 1 1 5 6 6 2 2 5 6 3 4 4 4 7 7 9 5 8 4 4 3 5 12 16 13 7 13 13 12 6 4 7 10 11 13 13 11
Wind_Direction
316 315 315 320 322 319 317 323 332 336 336 335 325 327 309 304 310 163 250 220 202 229 132 127 118 138 98 144 135 144 135 202 211 166 206 158 149 61 85 122 107 82 145 202 138
333 320 313 313 315 315 313 311 322 329 331 334 328 323 314 336 315 244 232 209 210 172 122 154 152 137 144 173 187 170 192 214 209 191 188 164 164 153 145 134 182 136 60 131 140
333 333 334 323 307 307 310 310 312 321 322 329 333 319 324 352 298 242 252 202 204 165 112 143 123 138 167 137 195 177 219 211 226 220 168 156 150 159 137 202 199 191 157 153 154
320 320 326 328 325 312 303 308 308 314 317 326 333 315 326 7 281 260 194 175 175 127 116 120 116 144 162 189 173 191 223 175 248 187 147 169 135 185 197 188 245 180 164 157 166
316 316 315 321 323 324 316 301 301 308 315 324 327 313 347 259 258 266 152 171 113 119 157 153 146 141 173 189 138 196 212 200 196 161 165 130 197 205 220 173 99 137 159 171 170
307 310 312 307 317 325 327 316 294 296 310 315 315 312 221 254 243 252 130 121 136 130 161 148 179 187 163 182 191 222 187 181 224 223 195 187 232 141 226 143 137 155 173 177 176
303 302 301 304 303 308 315 320 307 290 293 297 296 277 224 247 26 212 156 159 161 155 154 190 180 165 149 169 183 143 134 335 212 195 213 142 262 220 172 159 162 180 180 176 179
312 314 306 303 299 303 302 306 317 291 284 292 280 240 249 237 257 207 179 136 161 170 169 177 161 133 180 120 47 129 120 195 245 162 211 131 254 264 180 162 183 187 182 181 184
307 309 305 309 298 295 300 302 303 285 285 283 202 200 255 23 192 205 168 162 145 148 185 127 130 149 151 118 84 5 205 219 314 199 142 192 266 271 161 187 192 194 192 190 182
309 308 305 298 296 291 292 301 288 288 256 204 236 154 266 226 196 173 177 142 143 129 90 115 114 154 135 186 211 193 192 206 215 201 184 218 244 257 232 197 208 199 199 195 190
308 306 301 292 295 300 308 345 327 265 213 203 188 224 292 277 150 163 147 104 92 113 165 219 183 203 200 216 140 139 155 196 220 226 175 235 250 248 230 230 227 205 203 201 201
313 308 305 314 304 301 302 246 227 141 293 237 245 239 249 107 293 166 153 144 150 184 127 104 224 203 164 171 171 156 142 212 283 110 192 324 272 255 222 222 214 206 203 206 194
308 307 308 309 321 294 219 242 226 51 265 244 215 219 227 173 215 205 174 133 143 147 192 185 213 182 174 170 201 220 206 167 154 43 220 330 274 233 211 215 199 204 207 200 196
304 301 301 308 308 233 241 308 228 172 242 240 219 231 189 139 226 187 181 143 170 187 156 232 216 167 181 202 179 220 180 138 132 120 245 351 285 288 218 227 217 202 199 195 194
303 297 297 300 279 247 206 67 229 144 241 221 205 283 227 186 143 202 175 134 165 166 153 216 189 183 184 204 184 220 162 162 120 117 351 169 285 269 20 249 229 210 201 195 190
302 297 298 304 227 227 217 228 272 221 217 193 143 177 119 204 206 101 163 100 134 132 226 191 158 170 187 101 174 149 95 61 69 99 267 200 184 257 211 215 242 185 200 191 186
303 301 293 227 256 198 212 219 230 249 265 179 178 163 145 181 151 136 173 181 167 168 180 130 202 163 134 93 61 166 140 73 37 192 225 153 190 251 273 231 231 221 196 189 185
311 302 264 212 223 200 131 184 238 186 224 36 148 138 178 144 188 153 157 194 210 121 135 173 205 172 182 168 170 188 180 155 178 191 196 116 223 248 235 281 210 325 189 170 178
319 313 265 242 211 146 210 221 207 204 158 311 19 121 201 172 136 138 176 197 200 180 168 158 226 84 111 148 160 192 200 147 107 57 75 205 273 283 217 242 232 167 157 172 177
9 357 256 307 155 122 239 252 198 235 159 314 226 204 171 188 135 134 174 190 203 194 166 196 94 302 164 118 61 184 153 115 11 145 226 240 267 249 243 232 217 200 190 171 167
61 360 267 140 108 205 256 221 246 228 145 131 262 286 205 173 139 155 192 322 185 191 168 115 112 265 145 211 164 136 175 57 115 111 176 224 253 213 252 226 204 204 189 174 170
91 274 319 356 195 229 223 196 256 219 208 213 203 259 225 160 134 157 190 216 148 134 189 163 118 164 191 317 327 173 169 159 150 210 87 103 275 149 290 283 181 189 178 170 169
104 271 333 79 257 247 241 267 252 212 217 182 224 202 200 175 142 178 189 198 184 143 159 170 179 113 67 2 355 219 189 126 105 92 189 171 245 136 65 115 158 160 167 160 146
102 340 320 118 230 302 329 257 242 228 248 229 293 304 108 54 109 194 185 201 169 135 167 181 173 175 186 194 136 166 184 188 124 172 154 217 281 302 188 176 170 152 156 152 151
79 262 286 296 294 256 231 261 261 256 212 153 264 233 138 304 192 180 229 148 345 187 173 176 199 168 159 143 142 169 177 181 196 199 204 207 209 250 222 195 190 162 144 148 151
145 233 274 284 281 260 227 222 234 243 193 194 228 214 125 216 213 190 180 181 198 157 213 179 196 136 314 145 214 229 207 204 209 190 227 165 242 215 97 113 153 172 165 169 170
133 258 269 267 281 259 260 255 298 236 246 202 215 150 208 205 274 198 137 167 194 169 193 173 139 160 195 151 141 278 212 194 208 202 191 210 212 157 187 190 183 178 179 180 175